| time (UTC) | temp F | wind direction | speed MPH | gust MPH | rain 1hr in | rain 24hr in | rain mn in | humidity % | barometer mb |
| 20260902073341 | 82 | 327 | 3.0 | 5.0 | 0.00 | 0.00 | 0.00 | 86 | 1013.9 |
| 20260902072357 | 83 | 321 | 3.0 | 5.0 | 0.00 | 0.00 | 0.00 | 86 | 1014.0 |
| 20260902071328 | 82 | 325 | 2.0 | 4.0 | 0.00 | 0.00 | 0.00 | 86 | 1014.1 |
| 20260902070254 | 82 | 5 | 2.0 | 3.0 | 0.00 | 0.00 | 0.00 | 86 | 1014.1 |
| 20260902065308 | 82 | 350 | 2.0 | 4.0 | 0.00 | 0.00 | 0.00 | 86 | 1014.1 |
| 20260902063214 | 83 | 340 | 3.0 | 6.0 | 0.00 | 0.00 | 0.00 | 86 | 1014.3 |
| 20260902062235 | 82 | 310 | 2.0 | 4.0 | 0.00 | 0.00 | 0.00 | 86 | 1014.2 |
| 20260902061215 | 83 | 346 | 1.0 | 3.0 | 0.00 | 0.00 | 0.00 | 86 | 1014.3 |
| 20260902053855 | 83 | 350 | 1.0 | 2.0 | 0.00 | 0.00 | 0.00 | 84 | 1014.6 |
| 20260902052840 | 83 | 14 | 1.0 | 3.0 | 0.00 | 0.00 | 0.00 | 84 | 1014.6 |
| 20260902051838 | 83 | 20 | 1.0 | 6.0 | 0.00 | 0.00 | 0.00 | 84 | 1014.5 |
| 20260902050850 | 83 | 33 | 2.0 | 6.0 | 0.00 | 0.00 | 0.00 | 84 | 1014.4 |
| 20260902044719 | 83 | 355 | 0.0 | 0.0 | 0.00 | 0.00 | 0.00 | 84 | 1014.6 |
| 20260902043714 | 83 | 348 | 0.0 | 0.0 | 0.00 | 0.00 | 0.00 | 84 | 1014.6 |
| 20260902042726 | 83 | 5 | 0.0 | 0.0 | 0.00 | 0.00 | 0.00 | 84 | 1014.6 |
| 20260902041715 | 83 | 15 | 1.0 | 4.0 | 0.00 | 0.00 | 0.00 | 84 | 1014.7 |
| 20260902040642 | 83 | 35 | 1.0 | 4.0 | 0.00 | 0.00 | 0.00 | 83 | 1014.7 |
| 20260902035635 | 83 | 355 | 2.0 | 6.0 | 0.00 | 0.00 | 0.00 | 83 | 1014.7 |
| 20260902031235 | 83 | 0 | 2.0 | 6.0 | 0.00 | 0.00 | 0.00 | 83 | 1015.3 |
| 20260902030206 | 83 | 355 | 3.0 | 7.0 | 0.00 | 0.00 | 0.00 | 83 | 1015.4 |
| 20260902025151 | 83 | 355 | 4.0 | 7.0 | 0.00 | 0.00 | 0.00 | 83 | 1015.6 |
| 20260902024115 | 83 | 38 | 5.0 | 9.0 | 0.00 | 0.00 | 0.00 | 82 | 1015.7 |
| 20260902023039 | 83 | 34 | 5.0 | 9.0 | 0.00 | 0.00 | 0.00 | 82 | 1015.5 |
| 20260902022021 | 83 | 339 | 5.0 | 10.0 | 0.00 | 0.00 | 0.00 | 82 | 1015.5 |
| 20260902015833 | 83 | 0 | 4.0 | 8.0 | 0.00 | 0.00 | 0.00 | 82 | 1015.4 |
| 20260902014758 | 83 | 15 | 3.0 | 8.0 | 0.00 | 0.00 | 0.00 | 82 | 1015.6 |
| 20260902012640 | 83 | 355 | 5.0 | 10.0 | 0.00 | 0.00 | 0.00 | 80 | 1015.2 |
| 20260902011614 | 83 | 355 | 3.0 | 8.0 | 0.00 | 0.00 | 0.00 | 80 | 1015.1 |
| 20260902010556 | 83 | 5 | 5.0 | 9.0 | 0.00 | 0.00 | 0.00 | 81 | 1015.1 |
| 20260902005617 | 83 | 0 | 5.0 | 10.0 | 0.00 | 0.00 | 0.00 | 82 | 1015.1 |
| 20260902004545 | 83 | 348 | 5.0 | 10.0 | 0.00 | 0.00 | 0.00 | 82 | 1015.1 |
| 20260902003508 | 84 | 355 | 3.0 | 8.0 | 0.00 | 0.00 | 0.00 | 82 | 1015.1 |
| 20260902001405 | 84 | 0 | 4.0 | 9.0 | 0.00 | 0.00 | 0.00 | 82 | 1015.2 |
| 20260902000407 | 84 | 351 | 4.0 | 9.0 | 0.00 | 0.00 | 0.00 | 81 | 1015.2 |
| 20260901235411 | 84 | 15 | 3.0 | 7.0 | 0.00 | 0.00 | 0.00 | 82 | 1015.2 |
| 20260901234336 | 84 | 0 | 3.0 | 9.0 | 0.00 | 0.00 | 0.00 | 82 | 1015.2 |
| 20260901233327 | 84 | 9 | 4.0 | 9.0 | 0.00 | 0.00 | 0.00 | 81 | 1015.0 |
| 20260901232324 | 84 | 344 | 5.0 | 10.0 | 0.00 | 0.00 | 0.00 | 81 | 1015.0 |
| 20260901231330 | 84 | 9 | 5.0 | 10.0 | 0.00 | 0.00 | 0.00 | 81 | 1014.9 |
| 20260901230341 | 85 | 18 | 6.0 | 10.0 | 0.00 | 0.00 | 0.00 | 80 | 1014.8 |
| 20260901225319 | 85 | 24 | 6.0 | 10.0 | 0.00 | 0.00 | 0.00 | 78 | 1014.7 |
| 20260901224333 | 85 | 37 | 4.0 | 8.0 | 0.00 | 0.00 | 0.00 | 78 | 1014.7 |
| 20260901223311 | 85 | 351 | 4.0 | 10.0 | 0.00 | 0.00 | 0.00 | 79 | 1014.7 |
| 20260901222317 | 85 | 34 | 5.0 | 10.0 | 0.00 | 0.00 | 0.00 | 78 | 1014.5 |
| 20260901221318 | 85 | 57 | 6.0 | 12.0 | 0.00 | 0.00 | 0.00 | 76 | 1014.5 |
| 20260901220338 | 85 | 355 | 6.0 | 12.0 | 0.00 | 0.00 | 0.00 | 77 | 1014.4 |
| 20260901215335 | 85 | 43 | 6.0 | 12.0 | 0.00 | 0.00 | 0.00 | 78 | 1014.3 |
| 20260901214316 | 85 | 45 | 6.0 | 12.0 | 0.00 | 0.00 | 0.00 | 78 | 1014.2 |
| 20260901213307 | 86 | 49 | 7.0 | 13.0 | 0.00 | 0.00 | 0.00 | 80 | 1014.2 |
| 20260901212249 | 86 | 30 | 8.0 | 13.0 | 0.00 | 0.00 | 0.00 | 79 | 1014.2 |
| 20260901211227 | 86 | 45 | 8.0 | 14.0 | 0.00 | 0.00 | 0.00 | 79 | 1014.4 |
| 20260901210209 | 86 | 17 | 8.0 | 14.0 | 0.00 | 0.00 | 0.00 | 77 | 1014.5 |
| 20260901204028 | 86 | 42 | 9.0 | 16.0 | 0.00 | 0.00 | 0.00 | 76 | 1014.6 |
| 20260901203041 | 87 | 29 | 8.0 | 15.0 | 0.00 | 0.00 | 0.00 | 76 | 1014.6 |
| 20260901202103 | 87 | 25 | 9.0 | 15.0 | 0.00 | 0.00 | 0.00 | 74 | 1014.7 |
| 20260901201039 | 87 | 28 | 8.0 | 14.0 | 0.00 | 0.00 | 0.00 | 74 | 1014.8 |
| 20260901194837 | 87 | 22 | 8.0 | 13.0 | 0.00 | 0.00 | 0.00 | 74 | 1014.9 |
| 20260901193808 | 87 | 0 | 7.0 | 12.0 | 0.00 | 0.00 | 0.00 | 75 | 1015.1 |
| 20260901190527 | 86 | 350 | 7.0 | 13.0 | 0.00 | 0.00 | 0.00 | 76 | 1015.1 |
| 20260901184335 | 86 | 25 | 8.0 | 15.0 | 0.00 | 0.00 | 0.00 | 76 | 1015.3 |
| 20260901183258 | 86 | 44 | 9.0 | 15.0 | 0.00 | 0.00 | 0.00 | 77 | 1015.4 |
| 20260901182305 | 86 | 51 | 8.0 | 14.0 | 0.00 | 0.00 | 0.00 | 77 | 1015.5 |
| 20260901181319 | 87 | 54 | 8.0 | 14.0 | 0.00 | 0.00 | 0.00 | 77 | 1015.5 |
| 20260901180322 | 86 | 56 | 8.0 | 14.0 | 0.00 | 0.00 | 0.00 | 77 | 1015.6 |
| 20260901175334 | 87 | 5 | 8.0 | 13.0 | 0.00 | 0.00 | 0.00 | 78 | 1015.8 |
| 20260901174348 | 87 | 348 | 8.0 | 14.0 | 0.00 | 0.00 | 0.00 | 78 | 1016.0 |
| 20260901173322 | 86 | 0 | 9.0 | 14.0 | 0.00 | 0.00 | 0.00 | 77 | 1016.3 |
| 20260901172325 | 87 | 9 | 7.0 | 12.0 | 0.00 | 0.00 | 0.00 | 77 | 1016.4 |
| 20260901171324 | 87 | 32 | 7.0 | 13.0 | 0.00 | 0.00 | 0.00 | 76 | 1016.2 |
| 20260901170303 | 87 | 53 | 8.0 | 13.0 | 0.00 | 0.00 | 0.00 | 76 | 1016.3 |
| 20260901165300 | 87 | 12 | 8.0 | 13.0 | 0.00 | 0.00 | 0.00 | 77 | 1016.4 |
| 20260901164250 | 87 | 40 | 7.0 | 13.0 | 0.00 | 0.00 | 0.00 | 78 | 1016.4 |
| 20260901163215 | 86 | 15 | 8.0 | 14.0 | 0.00 | 0.00 | 0.00 | 78 | 1016.5 |
| 20260901162230 | 86 | 15 | 9.0 | 14.0 | 0.00 | 0.00 | 0.00 | 79 | 1016.5 |
| 20260901161210 | 86 | 36 | 8.0 | 12.0 | 0.00 | 0.00 | 0.00 | 79 | 1016.6 |
| 20260901160223 | 86 | 44 | 8.0 | 12.0 | 0.00 | 0.00 | 0.00 | 79 | 1016.6 |
| 20260901155245 | 86 | 0 | 7.0 | 11.0 | 0.00 | 0.00 | 0.00 | 78 | 1016.7 |
| 20260901152018 | 85 | 346 | 9.0 | 12.0 | 0.00 | 0.00 | 0.00 | 78 | 1016.8 |
| 20260901151022 | 86 | 24 | 7.0 | 12.0 | 0.00 | 0.00 | 0.00 | 77 | 1016.8 |
| 20260901150013 | 85 | 329 | 7.0 | 12.0 | 0.00 | 0.00 | 0.00 | 79 | 1016.6 |
| 20260901145021 | 85 | 47 | 7.0 | 11.0 | 0.00 | 0.00 | 0.00 | 80 | 1016.8 |
| 20260901144000 | 85 | 355 | 7.0 | 11.0 | 0.00 | 0.00 | 0.00 | 81 | 1016.8 |
| 20260901143014 | 85 | 355 | 7.0 | 11.0 | 0.00 | 0.00 | 0.00 | 81 | 1016.7 |
| 20260901135701 | 85 | 12 | 5.0 | 9.0 | 0.00 | 0.00 | 0.00 | 81 | 1016.4 |
| 20260901134717 | 85 | 346 | 6.0 | 9.0 | 0.00 | 0.00 | 0.00 | 82 | 1016.3 |
| 20260901132525 | 85 | 344 | 5.0 | 10.0 | 0.00 | 0.00 | 0.00 | 80 | 1016.1 |
| 20260901131513 | 85 | 347 | 5.0 | 9.0 | 0.00 | 0.00 | 0.00 | 80 | 1016.1 |
| 20260901130536 | 85 | 350 | 4.0 | 8.0 | 0.00 | 0.00 | 0.00 | 81 | 1016.0 |
| 20260901125542 | 85 | 351 | 5.0 | 7.0 | 0.00 | 0.00 | 0.00 | 81 | 1016.0 |
| 20260901124558 | 85 | 5 | 3.0 | 6.0 | 0.00 | 0.00 | 0.00 | 81 | 1015.9 |
| 20260901123615 | 85 | 19 | 2.0 | 6.0 | 0.00 | 0.00 | 0.00 | 83 | 1015.8 |
| 20260901122618 | 84 | 5 | 3.0 | 6.0 | 0.00 | 0.00 | 0.00 | 84 | 1015.7 |
| 20260901121639 | 84 | 23 | 2.0 | 4.0 | 0.00 | 0.00 | 0.00 | 85 | 1015.6 |
| 20260901120637 | 83 | 0 | 1.0 | 3.0 | 0.00 | 0.00 | 0.00 | 87 | 1015.6 |
| 20260901114439 | 82 | 355 | 2.0 | 6.0 | 0.00 | 0.00 | 0.00 | 87 | 1015.3 |
| 20260901113417 | 81 | 355 | 3.0 | 6.0 | 0.00 | 0.00 | 0.00 | 87 | 1015.3 |
| 20260901112343 | 81 | 355 | 2.0 | 4.0 | 0.00 | 0.00 | 0.00 | 87 | 1015.1 |
| 20260901111348 | 81 | 336 | 2.0 | 4.0 | 0.00 | 0.00 | 0.00 | 87 | 1015.0 |
| 20260901110351 | 81 | 327 | 2.0 | 5.0 | 0.00 | 0.00 | 0.00 | 87 | 1014.9 |
| 20260901105323 | 81 | 340 | 3.0 | 4.0 | 0.00 | 0.00 | 0.00 | 87 | 1015.0 |
| 20260901104338 | 81 | 343 | 2.0 | 4.0 | 0.00 | 0.00 | 0.00 | 87 | 1015.0 |
| 20260901103330 | 81 | 339 | 1.0 | 3.0 | 0.00 | 0.00 | 0.00 | 87 | 1014.8 |
| 20260901102300 | 81 | 339 | 1.0 | 2.0 | 0.00 | 0.00 | 0.00 | 87 | 1014.6 |
| 20260901101259 | 81 | 9 | 1.0 | 2.0 | 0.00 | 0.00 | 0.00 | 87 | 1014.6 |
| 20260901100239 | 81 | 5 | 1.0 | 2.0 | 0.00 | 0.00 | 0.00 | 86 | 1014.6 |
| 20260901094107 | 81 | 355 | 0.0 | 1.0 | 0.00 | 0.00 | 0.00 | 86 | 1014.6 |
| 20260901093120 | 81 | 355 | 0.0 | 0.0 | 0.00 | 0.00 | 0.00 | 86 | 1014.6 |
| 20260901092106 | 82 | 355 | 0.0 | 1.0 | 0.00 | 0.00 | 0.00 | 86 | 1014.5 |
| 20260901091047 | 82 | 355 | 0.0 | 2.0 | 0.00 | 0.00 | 0.00 | 86 | 1014.6 |
| 20260901090024 | 82 | 355 | 0.0 | 2.0 | 0.00 | 0.00 | 0.00 | 86 | 1014.6 |
| 20260901083837 | 82 | 355 | 1.0 | 3.0 | 0.00 | 0.00 | 0.00 | 86 | 1014.6 |
| 20260901082856 | 82 | 342 | 2.0 | 3.0 | 0.00 | 0.00 | 0.00 | 86 | 1014.7 |
| 20260901081841 | 83 | 336 | 0.0 | 1.0 | 0.00 | 0.00 | 0.00 | 86 | 1014.7 |
| 20260901080837 | 82 | 336 | 0.0 | 3.0 | 0.00 | 0.00 | 0.00 | 86 | 1014.7 |
| 20260901075809 | 83 | 336 | 1.0 | 3.0 | 0.00 | 0.00 | 0.00 | 86 | 1014.7 |
| 20260901074823 | 83 | 341 | 1.0 | 2.0 | 0.00 | 0.00 | 0.00 | 86 | 1014.7 |